Wetbulb
65.18 65.73 66.57 67.50 67.78 68.20 67.82 69.14 69.27 73.02 72.58 72.73 74.15 73.92 74.29 73.81 73.44 72.98 71.98 71.04 71.21 71.48 70.50 70.23 71.63 71.69 71.80 72.43 72.26 71.68 71.43 71.07 70.73
63.06 64.93 64.00 62.93 63.53 65.77 68.71 66.54 69.97 73.84 74.30 74.07 74.08 74.48 73.64 73.47 73.16 71.09 70.89 72.63 71.73 71.67 71.59 72.55 69.96 71.01 70.16 71.46 71.09 69.96 69.94 69.33 67.19
62.58 64.92 64.92 63.24 63.41 64.25 64.53 66.17 72.33 73.48 72.52 71.28 71.67 71.63 71.65 70.62 70.23 70.25 71.16 71.36 70.35 69.94 68.45 68.94 69.94 70.07 70.46 69.69 68.79 68.56 67.86 67.21 66.81
62.68 62.59 64.39 63.60 63.88 66.57 69.90 72.54 73.03 72.37 72.06 70.74 69.89 70.18 69.89 69.17 69.17 69.48 69.28 69.80 68.79 70.07 69.48 68.88 67.37 68.13 67.88 67.14 66.56 66.56 66.79 66.90 65.20
64.37 63.20 63.65 67.80 70.30 70.58 70.26 70.26 69.94 69.75 70.05 70.18 70.11 69.84 69.23 67.79 66.51 66.54 66.03 66.23 66.85 67.01 67.33 69.03 68.72 66.69 65.97 65.84 66.36 65.75 66.45 67.21 67.71
65.26 67.67 68.48 68.66 68.87 68.40 68.12 68.36 68.89 69.37 68.90 68.83 68.31 66.93 66.16 65.74 66.27 67.15 67.19 67.53 67.82 67.82 67.77 67.62 68.04 66.92 66.11 66.24 65.75 65.75 66.02 66.52 65.98
65.47 67.08 67.29 66.99 66.79 66.61 66.60 66.73 66.94 67.33 68.34 68.06 66.92 67.23 66.16 65.85 66.74 67.35 67.80 67.08 66.79 66.61 66.38 65.82 65.01 64.88 65.48 65.14 63.69 64.02 64.26 64.21 63.62
66.57 66.88 66.68 66.68 66.14 65.94 66.01 66.67 67.12 66.98 66.63 67.50 68.43 67.80 66.27 66.39 66.09 65.89 65.40 66.28 65.83 65.34 66.78 66.05 65.05 64.85 64.55 62.57 61.45 61.49 58.05 58.71 57.59
66.36 66.76 66.87 67.08 66.99 66.53 66.42 67.41 67.12 67.20 67.32 67.68 67.39 66.38 64.91 65.19 64.90 64.43 63.51 63.07 62.57 61.88 61.29 60.50 60.56 60.29 62.44 60.34 59.98 60.86 61.55 57.62 56.17
65.66 67.41 67.19 67.03 67.00 66.75 66.90 67.55 67.92 67.08 67.66 67.70 66.47 65.73 65.82 65.75 65.20 64.30 62.56 61.15 59.11 57.69 57.78 57.00 57.41 57.48 56.83 58.30 56.41 59.10 60.14 58.69 52.36
65.39 67.10 67.48 67.66 67.49 67.32 67.42 68.06 67.98 66.97 66.63 66.11 65.93 65.30 65.04 64.93 63.80 62.04 59.60 57.98 57.09 56.00 56.11 55.15 54.61 55.29 54.36 54.24 56.02 58.15 58.42 58.08 51.14
66.21 66.23 67.25 67.54 68.41 67.38 67.61 67.55 66.71 65.13 64.58 64.32 64.24 63.40 62.43 61.20 60.14 58.17 57.02 56.13 54.99 54.34 53.22 53.14 51.96 52.53 51.95 52.55 53.48 57.44 57.41 53.75 49.89
66.89 67.12 66.75 66.77 67.32 67.69 67.39 66.67 66.12 65.14 63.53 61.90 60.76 59.85 58.85 58.12 57.26 56.17 54.89 54.16 53.00 52.54 51.84 52.38 52.24 51.99 52.54 54.86 52.17 55.42 56.56 53.09 49.22
67.18 66.85 66.88 67.18 67.16 66.51 66.56 65.76 64.54 62.13 60.65 59.89 59.24 58.25 56.89 55.35 54.21 54.93 53.81 52.28 51.66 51.49 51.36 51.46 50.90 51.97 52.16 50.64 52.30 53.03 54.91 53.69 46.19
66.09 65.51 65.69 65.02 62.94 62.15 63.15 63.36 61.45 58.67 57.72 57.96 58.10 56.71 55.39 53.86 52.41 55.13 53.83 51.09 50.08 50.87 50.87 50.78 50.65 47.08 45.79 46.23 47.43 52.61 53.83 52.80 51.18
64.81 64.36 62.17 60.96 59.90 60.37 60.62 59.38 59.39 56.74 55.99 56.09 55.44 54.51 53.62 53.09 52.76 52.51 52.11 50.75 50.26 49.75 50.35 50.88 49.62 46.83 45.15 44.12 45.48 45.55 51.89 50.30 50.68
62.46 61.43 60.07 59.34 58.57 58.40 57.23 56.92 56.54 55.84 55.03 54.39 53.48 52.28 51.40 51.10 51.36 51.44 51.65 52.91 51.67 49.78 48.12 47.67 46.63 45.93 44.05 43.54 42.52 43.24 43.74 44.37 43.66
61.43 60.31 59.32 58.29 56.70 55.78 54.34 53.55 52.80 52.20 51.64 51.22 50.05 49.40 49.40 49.35 49.38 47.82 48.19 48.41 50.43 50.24 49.06 48.46 46.46 44.61 44.20 42.49 42.19 43.93 44.93 44.12 43.76
60.81 59.44 58.19 56.24 54.49 53.51 51.94 51.97 51.42 51.44 51.63 51.08 49.88 48.86 48.82 48.72 46.71 47.17 48.01 46.38 45.54 46.92 46.68 46.22 45.48 44.96 45.28 45.00 45.89 45.71 43.92 42.52 42.27
58.76 58.50 56.61 55.07 53.64 52.96 51.44 50.81 51.23 51.48 51.63 51.23 49.62 48.39 48.89 48.74 48.64 47.87 47.24 44.69 44.84 43.24 44.98 45.17 43.60 43.58 44.37 45.15 45.39 44.28 42.69 41.53 41.54
MSLP
1007.20 1008.23 1006.75 1006.93 1007.92 1008.29 1007.63 1007.86 1008.19 1008.63 1009.36 1009.43 1009.78 1010.05 1010.05 1009.73 1010.76 1010.78 1011.16 1012.19 1012.88 1012.57 1012.24 1011.73 1011.29 1011.49 1011.68 1011.83 1012.22 1012.76 1013.04 1012.76 1013.32
1007.35 1007.36 1007.31 1005.62 1005.89 1007.96 1007.45 1008.46 1007.98 1008.28 1008.98 1009.87 1009.96 1010.11 1010.17 1009.80 1010.02 1010.97 1011.20 1011.21 1011.50 1011.58 1012.30 1011.76 1011.90 1011.42 1011.74 1011.82 1012.29 1012.39 1012.63 1012.51 1013.04
1006.68 1006.81 1007.08 1007.38 1007.79 1008.34 1007.93 1008.02 1008.29 1008.83 1009.34 1010.27 1010.20 1010.42 1010.56 1010.90 1011.04 1010.77 1011.09 1011.57 1011.91 1012.27 1012.19 1011.73 1011.74 1011.76 1011.95 1012.15 1012.34 1012.49 1012.66 1013.01 1012.86
1007.21 1007.28 1007.71 1007.60 1008.49 1009.17 1008.52 1008.58 1009.15 1009.43 1009.80 1010.26 1010.88 1010.85 1011.14 1011.43 1011.52 1011.50 1011.61 1011.89 1012.04 1011.97 1011.96 1011.93 1011.92 1012.06 1012.36 1012.59 1012.69 1012.70 1012.71 1012.65 1012.94
1007.45 1008.44 1008.42 1008.64 1009.10 1009.09 1009.54 1009.97 1009.86 1010.10 1010.41 1010.72 1011.10 1011.34 1011.63 1011.91 1011.91 1012.05 1012.13 1012.13 1012.11 1012.06 1012.09 1012.14 1012.21 1012.32 1012.62 1012.76 1012.75 1012.72 1012.73 1012.82 1012.79
1007.66 1007.91 1008.73 1009.19 1009.57 1009.82 1010.12 1010.36 1010.35 1010.43 1011.04 1011.39 1011.48 1011.68 1012.04 1012.28 1012.40 1012.40 1012.52 1012.54 1012.54 1012.45 1012.45 1012.55 1012.60 1012.56 1012.67 1012.86 1012.85 1012.86 1013.03 1013.14 1013.34
1007.83 1008.04 1008.67 1009.41 1009.98 1010.46 1010.52 1010.45 1010.69 1011.10 1011.52 1011.58 1011.67 1011.95 1012.37 1012.59 1012.74 1012.67 1012.75 1012.75 1012.78 1012.79 1012.80 1012.85 1012.87 1012.87 1012.81 1013.03 1013.25 1013.36 1013.36 1013.46 1013.76
1007.65 1007.86 1008.49 1009.16 1010.20 1010.45 1010.34 1010.34 1010.73 1011.09 1011.53 1011.78 1011.95 1012.15 1012.45 1012.79 1012.92 1012.93 1012.92 1013.03 1013.19 1013.14 1013.17 1013.25 1013.25 1013.20 1013.31 1013.46 1013.60 1013.84 1013.91 1013.94 1014.12
1006.91 1007.56 1008.17 1008.75 1009.29 1009.76 1009.80 1010.30 1010.87 1011.24 1011.75 1012.09 1012.18 1012.45 1012.83 1012.98 1013.19 1013.33 1013.50 1013.63 1013.80 1013.77 1013.81 1013.86 1013.78 1013.80 1013.84 1014.01 1014.03 1014.05 1014.11 1014.11 1014.31
1006.49 1007.10 1007.70 1008.28 1008.72 1009.33 1010.18 1010.56 1010.89 1011.50 1011.87 1012.25 1012.62 1012.95 1013.24 1013.40 1013.57 1013.82 1013.98 1014.07 1014.30 1014.46 1014.47 1014.35 1014.31 1014.29 1014.27 1014.39 1014.40 1014.33 1014.31 1014.34 1014.66
1005.95 1006.66 1007.22 1007.62 1008.56 1009.46 1010.23 1010.74 1011.18 1011.63 1012.01 1012.33 1012.89 1013.09 1013.49 1013.73 1013.87 1014.07 1014.41 1014.66 1014.84 1014.82 1014.81 1014.79 1014.67 1014.65 1014.62 1014.55 1014.49 1014.48 1014.50 1014.63 1014.78
1004.68 1005.92 1006.64 1007.33 1008.13 1009.19 1010.21 1010.77 1011.53 1011.99 1012.37 1012.59 1013.01 1013.59 1014.02 1014.15 1014.27 1014.57 1014.88 1015.04 1015.09 1015.04 1015.00 1014.99 1014.98 1014.83 1014.75 1014.73 1014.52 1014.40 1014.46 1014.70 1015.02
1004.24 1005.18 1006.22 1007.46 1008.46 1009.42 1010.54 1011.19 1011.38 1011.95 1012.56 1013.09 1013.57 1013.87 1014.28 1014.47 1014.63 1014.89 1015.10 1015.21 1015.26 1015.12 1015.09 1015.15 1015.10 1014.83 1014.89 1014.54 1014.45 1014.26 1014.36 1014.67 1015.09
1004.66 1006.00 1006.98 1007.74 1008.66 1009.78 1010.78 1011.51 1011.76 1012.43 1012.83 1013.43 1013.88 1014.26 1014.54 1014.79 1014.94 1015.07 1015.13 1015.14 1015.20 1015.16 1015.23 1015.25 1015.23 1015.03 1014.67 1014.52 1014.33 1014.23 1014.37 1014.62 1015.03
1006.00 1007.15 1007.89 1008.48 1009.54 1010.55 1011.44 1011.79 1012.20 1012.79 1013.37 1013.70 1014.17 1014.55 1014.79 1015.04 1015.05 1014.98 1015.02 1015.20 1015.23 1015.23 1015.35 1015.28 1015.22 1015.03 1014.84 1014.69 1014.82 1014.66 1014.63 1014.97 1015.20
1006.96 1007.61 1008.61 1009.72 1010.31 1011.49 1012.16 1012.35 1012.62 1013.32 1013.79 1014.04 1014.49 1014.81 1014.98 1015.13 1015.10 1015.01 1014.98 1015.25 1015.24 1015.18 1015.14 1015.08 1015.11 1015.12 1014.94 1015.49 1015.42 1015.08 1015.08 1015.31 1015.31
1007.52 1008.32 1009.12 1010.12 1011.13 1012.00 1012.72 1012.77 1013.14 1013.58 1014.07 1014.24 1014.65 1014.96 1015.14 1015.24 1015.31 1015.26 1015.10 1015.03 1015.02 1015.09 1014.96 1015.01 1014.99 1015.17 1015.55 1015.66 1015.68 1015.59 1015.48 1015.40 1015.21
1007.78 1008.87 1010.02 1010.67 1011.55 1012.41 1013.17 1013.06 1013.51 1014.03 1014.31 1014.38 1014.85 1015.21 1015.27 1015.28 1015.27 1015.24 1015.14 1014.95 1014.74 1014.93 1014.73 1014.67 1014.87 1015.11 1015.49 1015.71 1015.63 1015.44 1015.26 1015.13 1014.86
1007.90 1009.43 1010.42 1011.27 1011.91 1012.60 1013.12 1013.53 1014.21 1014.41 1014.26 1014.44 1015.01 1015.27 1015.32 1015.37 1015.28 1015.13 1015.01 1014.94 1015.15 1015.16 1014.93 1014.76 1014.87 1015.05 1015.14 1015.31 1015.19 1015.08 1014.84 1014.59 1014.25
1008.54 1009.85 1010.90 1011.60 1012.14 1012.79 1013.39 1013.94 1014.40 1014.54 1014.45 1014.69 1015.10 1015.13 1015.21 1015.25 1015.13 1015.11 1015.04 1015.28 1015.49 1015.89 1015.80 1015.48 1015.30 1015.22 1015.13 1015.04 1014.84 1014.56 1014.28 1014.05 1013.76
Wind_Speed
15 5 10 9 12 6 6 5 3 8 7 7 7 6 8 8 7 4 4 5 7 5 5 3 4 2 0 6 6 4 3 3 3
10 11 9 17 18 8 8 6 5 9 10 4 5 7 5 4 2 3 3 11 8 4 6 1 3 4 4 7 8 6 3 4 4
3 7 18 14 3 6 4 5 6 8 9 5 4 5 4 5 2 4 7 6 5 3 1 4 5 5 5 3 3 3 4 3 4
4 6 10 6 2 6 3 7 7 9 9 9 6 6 5 4 5 6 5 5 4 4 4 4 4 5 5 5 4 3 3 4 0
3 7 5 7 8 9 8 6 7 7 7 7 6 6 6 6 6 6 6 5 4 3 4 5 5 5 5 3 2 3 3 4 3
8 14 12 9 8 9 8 7 7 9 6 6 6 6 6 6 6 6 6 6 5 5 5 5 4 3 4 5 4 4 4 3 3
13 16 16 11 8 8 8 8 8 8 7 6 6 7 6 6 5 5 6 6 6 6 5 5 5 5 5 6 6 6 5 5 4
10 15 15 13 11 9 9 8 7 6 6 6 5 6 6 6 6 5 6 6 5 5 7 6 6 6 6 6 6 5 6 6 6
12 13 13 12 10 9 8 7 7 6 6 6 6 7 6 6 6 6 6 6 6 7 6 6 6 6 6 6 4 8 9 7 5
12 12 11 11 10 8 7 7 6 6 7 7 6 6 6 5 4 5 6 6 6 6 5 5 5 5 5 4 3 7 8 10 5
9 12 12 10 9 7 6 5 8 8 7 9 7 7 5 4 5 6 6 6 5 4 3 4 3 3 3 2 1 4 4 8 4
12 9 11 11 11 8 10 10 9 8 6 8 8 6 5 5 5 6 5 4 4 3 4 4 3 2 3 4 4 5 3 7 3
12 13 10 12 12 12 11 7 9 10 7 7 6 6 6 5 4 5 4 2 1 1 1 2 4 6 5 6 5 5 7 6 3
13 12 15 14 13 12 10 6 7 7 7 7 6 6 6 5 3 4 3 1 1 2 3 4 4 5 3 1 0 3 8 8 3
17 17 14 13 12 7 6 7 10 9 8 6 6 6 6 4 3 4 3 2 3 2 3 4 3 0 2 1 5 6 1 7 6
15 17 13 11 12 10 6 6 8 10 6 7 6 5 4 3 2 2 3 3 5 3 2 3 3 3 3 4 4 5 12 9 7
14 13 13 12 12 11 8 7 7 7 6 6 6 4 1 2 2 4 5 4 3 3 3 3 5 3 3 3 2 3 2 2 4
14 12 9 9 11 10 8 8 8 7 6 7 6 3 1 1 1 2 3 3 3 3 2 4 2 3 4 3 1 2 4 4 4
14 12 10 9 10 11 8 8 7 5 5 6 5 3 1 1 1 2 2 2 4 14 7 11 12 9 6 1 4 6 9 10 11
14 13 12 11 11 10 8 8 7 5 5 5 3 2 1 2 3 3 3 3 4 5 3 6 5 8 7 7 8 10 10 10 10
Wind_Direction
94 88 116 116 216 222 183 161 59 203 202 184 174 188 215 191 208 203 205 49 358 315 272 249 295 248 33 132 124 151 92 87 48
139 164 176 189 212 242 229 126 20 159 153 150 167 202 240 260 197 291 95 138 214 237 292 231 40 81 92 113 128 145 144 92 46
204 211 199 215 223 278 353 6 65 100 98 110 69 39 70 65 46 71 72 84 89 109 61 59 82 74 86 81 77 99 117 97 95
226 180 210 184 164 258 88 63 97 102 101 88 88 84 82 63 48 64 71 96 95 76 71 72 80 82 94 108 138 142 102 111 184
238 172 171 149 134 104 103 125 98 102 94 92 83 88 82 69 69 71 69 61 61 59 79 59 88 105 122 102 97 128 162 172 160
139 132 126 119 122 121 123 122 110 100 109 127 118 106 98 85 83 81 74 71 60 52 73 74 79 95 109 96 95 87 83 102 103
155 144 145 143 138 145 148 137 132 130 137 133 128 113 102 94 75 79 93 80 67 67 67 67 58 58 65 82 65 46 42 62 61
143 142 147 145 157 160 147 129 122 126 129 125 125 112 105 96 86 76 74 64 61 57 61 60 51 58 68 78 75 75 73 60 50
156 151 151 151 146 143 130 129 142 142 126 119 107 101 103 108 97 83 78 73 52 48 44 47 52 52 72 79 79 76 71 76 57
160 160 150 149 148 131 148 157 147 127 129 120 102 115 118 111 119 98 76 73 62 45 36 29 42 50 65 82 96 83 71 73 71
160 158 158 145 140 153 149 115 118 117 117 112 121 101 89 88 83 80 70 65 56 38 33 31 44 52 68 66 211 157 116 87 70
156 157 161 159 158 135 133 138 138 122 124 121 112 112 93 81 86 87 74 54 33 18 28 11 8 317 13 20 320 281 200 116 97
147 148 138 125 126 129 133 147 138 131 129 114 120 119 120 102 100 113 104 90 343 330 20 331 342 342 27 321 329 325 137 124 118
136 127 120 120 122 135 150 146 122 120 115 125 133 123 118 103 98 131 153 224 298 320 331 349 352 327 323 299 355 161 154 136 129
118 121 117 108 103 92 102 129 126 114 113 128 127 131 123 127 126 157 176 249 300 311 322 317 311 159 305 324 7 352 207 125 62
128 124 116 111 107 101 75 81 112 113 135 123 121 118 134 183 224 265 272 270 286 315 320 280 242 231 274 40 31 39 64 36 4
129 126 121 120 110 108 108 101 95 108 112 105 115 134 181 323 296 289 277 276 256 269 275 247 251 329 51 106 62 48 29 328 303
124 122 124 124 121 118 125 108 101 109 109 103 94 83 30 18 342 351 342 304 264 314 342 212 136 138 122 118 34 270 231 256 301
130 130 126 121 120 123 121 110 118 123 114 105 112 101 39 295 322 318 338 340 41 27 103 99 113 154 140 250 215 229 246 266 281
120 124 130 132 129 126 127 129 142 155 143 138 151 164 291 306 319 309 286 19 97 132 4 53 115 152 162 186 213 242 266 276 296